User: anonymous   Login
Location: Unspecified
(0.0000°N, 0.0000°E)
Time: 18:55:07
(UTC+00:00)
Language:

deb r/b Ablestar - Orbit

View from above orbital plane
View from above orbital plane
View from above satellite
View from above satellite

Ground track
Ground track

The orbit data is extracted from the following two-line orbital elements,

1   335U 61015DM  17113.85735461 +.00000276 +00000-0 +17780-3 0  9997
2   335 066.8439 017.5514 0033127 123.9033 236.5218 14.16735447853790
Epoch (UTC): 23 April 2017 20:34:35
Eccentricity: 0.0033127
inclination: 66.8439°
perigee height: 812 km
apogee height: 860 km
right ascension of ascending node: 17.5514°
argument of perigee: 123.9033°
revolutions per day: 14.16735447
mean anomaly at epoch: 236.5218°
orbit number at epoch: 85379

The dashed part of the orbit path shows where the satellite is in the earth's shadow,  

DLR